KP4CRN Weather Reports


time (UTC)temp
F
wind
direction
speed
knots
gust
knots
rain 1hr
in
rain 24hr
in
rain mn
in
humidity
%
barometer
mb
20260508023924 78 188 0.9 0.9 0.00 1.34 1.34 94 1017.6
20260508023421 78 173 1.7 1.7 0.00 1.34 1.34 94 1017.5
20260508022918 78 162 1.7 1.7 0.00 1.34 1.34 94 1017.7
20260508022413 78 208 0.0 0.0 0.00 1.34 1.34 94 1017.6
20260508021910 78 194 0.0 0.0 0.00 1.34 1.34 94 1017.5
20260508021406 78 208 0.0 0.0 0.00 1.34 1.34 95 1017.6
20260508020902 78 164 0.0 0.9 0.00 1.34 1.34 94 1017.6
20260508020401 78 190 0.0 0.0 0.00 1.34 1.34 94 1017.3
20260508015857 78 143 0.9 1.7 0.00 1.34 1.34 95 1017.5
20260508015355 78 150 0.9 1.7 0.00 1.34 1.34 95 1017.4
20260508014851 78 89 0.9 0.9 0.00 1.34 1.34 95 1017.4
20260508014349 78 166 2.6 2.6 0.00 1.34 1.34 95 1017.5
20260508013844 78 158 2.6 2.6 0.00 1.34 1.34 95 1017.3
20260508013341 78 136 2.6 2.6 0.00 1.34 1.34 95 1017.3
20260508012838 78 185 1.7 1.7 0.00 1.34 1.34 95 1017.3
20260508012335 78 180 2.6 2.6 0.00 1.34 1.34 94 1017.2
20260508011833 79 115 0.9 1.7 0.00 1.34 1.34 93 1017.3
20260508011330 79 101 1.7 1.7 0.00 1.34 1.34 93 1017.2
20260508010827 79 155 2.6 2.6 0.00 1.34 1.34 93 1017.2
20260508010325 79 169 0.9 1.7 0.00 1.34 1.34 94 1017.3
20260508005822 79 168 1.7 1.7 0.00 1.34 1.34 93 1017.1
20260508005318 79 77 0.9 1.7 0.00 1.34 1.34 93 1017.1
20260508004815 79 148 0.0 0.9 0.00 1.34 1.34 93 1017.1
20260508004311 79 135 0.9 0.9 0.00 1.34 1.34 93 1016.9
20260508003807 79 112 1.7 1.7 0.00 1.34 1.34 93 1017.0
20260508003305 78 91 2.6 2.6 0.00 1.34 1.34 94 1017.1
20260508002801 78 99 2.6 5.2 0.00 1.34 1.34 96 1017.0
20260508002258 77 69 2.6 2.6 0.00 1.34 1.34 97 1017.1
20260508001754 77 86 2.6 2.6 0.00 1.34 1.34 97 1016.8
20260508001250 77 75 1.7 2.6 0.00 1.34 1.34 97 1016.7
20260508000746 78 118 0.9 1.7 0.00 1.34 1.34 97 1016.9
20260508000244 77 118 1.7 2.6 0.00 1.34 1.34 98 1016.8
20260507235740 77 80 3.5 4.3 0.00 1.34 1.34 98 1016.6
20260507235238 77 56 0.9 1.7 0.00 1.34 1.34 98 1016.6
20260507234734 77 101 2.6 4.3 0.00 1.34 1.34 98 1016.7
20260507234231 77 143 1.7 1.7 0.00 1.34 1.34 99 1016.7
20260507233727 77 273 0.0 0.0 0.00 1.34 1.34 99 1016.5
20260507233226 76 255 1.7 1.7 0.00 1.34 1.34 99 1016.4
20260507232723 76 233 0.9 1.7 0.00 1.34 1.34 99 1016.5
20260507232220 75 249 0.9 0.9 0.00 1.34 1.34 99 1016.5
20260507231716 75 275 1.7 1.7 0.00 1.34 1.34 99 1016.2
20260507231213 75 257 1.7 1.7 0.00 1.34 1.34 99 1016.3
20260507230710 75 256 1.7 1.7 0.00 1.34 1.34 99 1016.2
20260507230208 75 272 0.9 0.9 0.00 1.34 1.34 99 1015.8
20260507225706 75 264 0.9 0.9 0.00 1.34 1.34 99 1015.7
20260507225203 75 281 0.0 0.0 0.00 1.34 1.34 99 1015.7
20260507224659 75 274 0.0 0.0 0.00 1.34 1.34 99 1015.6
20260507224155 74 356 0.0 0.9 0.00 1.34 1.34 99 1015.6
20260507223652 74 334 0.0 0.0 0.26 1.34 1.34 99 1015.7
20260507223149 74 195 0.9 0.9 0.73 1.34 1.34 99 1015.9
20260507222646 75 201 5.2 6.1 0.78 1.31 1.31 99 1015.9
20260507222142 75 183 6.1 7.8 1.09 1.24 1.24 99 1015.9
20260507221639 74 236 3.5 5.2 1.56 1.17 1.17 99 1016.0
20260507221135 75 220 5.2 7.0 2.22 1.02 1.02 99 1016.0
20260507220632 76 194 6.1 7.0 2.60 0.84 0.84 99 1015.8
20260507220130 75 149 1.7 2.6 2.53 0.63 0.63 99 1015.9
20260507215626 75 76 2.6 2.6 1.21 0.38 0.38 99 1016.0
20260507215124 77 68 2.6 5.2 0.40 0.21 0.21 99 1015.8
20260507214621 77 38 4.3 6.1 0.47 0.18 0.18 99 1015.3
20260507214117 78 83 3.5 4.3 0.71 0.15 0.15 98 1015.5
20260507213613 79 58 6.1 7.8 0.54 0.09 0.09 97 1015.2
20260507213110 80 68 5.2 8.7 0.12 0.02 0.02 95 1015.1
20260507212606 81 29 4.3 5.2 0.00 0.00 0.00 93 1015.0
20260507212103 84 68 7.8 9.6 0.00 0.00 0.00 86 1015.1
20260507211600 84 84 3.5 4.3 0.00 0.00 0.00 83 1015.2
20260507211056 83 153 4.3 5.2 0.00 0.00 0.00 83 1014.9
20260507210554 84 99 4.3 5.2 0.00 0.00 0.00 83 1015.1
20260507210050 84 116 4.3 5.2 0.00 0.00 0.00 82 1015.0
20260507205547 85 129 4.3 6.1 0.00 0.00 0.00 80 1015.0
20260507205043 85 152 5.2 7.0 0.00 0.00 0.00 79 1015.0
20260507204539 85 109 4.3 6.1 0.00 0.00 0.00 80 1015.0
20260507204037 85 72 1.7 2.6 0.00 0.00 0.00 80 1014.8
20260507203535 85 107 2.6 4.3 0.00 0.00 0.00 80 1014.9
20260507203032 84 126 2.6 2.6 0.00 0.00 0.00 79 1014.9
20260507202528 86 102 5.2 6.1 0.00 0.00 0.00 77 1014.9
20260507202024 84 86 4.3 7.0 0.00 0.00 0.00 81 1014.9
20260507201520 86 92 6.1 7.0 0.00 0.00 0.00 78 1014.8
20260507201016 86 81 4.3 5.2 0.00 0.00 0.00 77 1014.9
20260507200512 85 109 7.0 8.7 0.00 0.00 0.00 79 1014.9
20260507200008 85 94 4.3 6.1 0.00 0.00 0.00 78 1015.0
20260507195505 86 87 7.0 9.6 0.00 0.00 0.00 78 1015.0
20260507195003 87 117 9.6 12.2 0.00 0.00 0.00 78 1014.7
20260507194459 86 66 7.0 8.7 0.00 0.00 0.00 78 1014.9
20260507193955 86 154 4.3 6.1 0.00 0.00 0.00 77 1015.0
20260507193452 86 82 6.1 6.1 0.00 0.00 0.00 79 1015.1
20260507192949 86 93 3.5 5.2 0.00 0.00 0.00 78 1015.1
20260507192445 86 87 5.2 6.1 0.00 0.00 0.00 78 1015.1
20260507191942 87 67 6.1 8.7 0.00 0.00 0.00 78 1015.1
20260507191438 87 87 3.5 5.2 0.00 0.00 0.00 77 1015.0
20260507190935 87 38 6.1 7.0 0.00 0.00 0.00 77 1015.2
20260507190432 89 42 7.0 9.6 0.00 0.00 0.00 74 1015.2
20260507185931 88 69 5.2 7.0 0.00 0.00 0.00 75 1015.1
20260507185428 88 93 2.6 4.3 0.00 0.00 0.00 74 1015.2
20260507184925 87 92 7.8 9.6 0.00 0.00 0.00 75 1015.3
20260507184423 88 62 5.2 7.0 0.00 0.00 0.00 74 1015.3
20260507183920 87 48 7.0 7.8 0.00 0.00 0.00 75 1015.3
20260507183417 87 60 7.8 8.7 0.00 0.00 0.00 75 1015.4
20260507182914 87 63 7.0 9.6 0.00 0.00 0.00 74 1015.3
20260507182410 88 44 6.1 7.0 0.00 0.00 0.00 74 1015.3
20260507181906 87 43 4.3 7.0 0.00 0.00 0.00 75 1015.5
20260507181402 89 78 9.6 11.3 0.00 0.00 0.00 72 1015.3
20260507180859 88 63 5.2 7.8 0.00 0.00 0.00 75 1015.4
20260507180356 89 80 6.1 7.8 0.00 0.00 0.00 73 1015.6
20260507175852 89 55 7.0 11.3 0.00 0.00 0.00 72 1015.6
20260507175349 89 88 5.2 6.1 0.00 0.00 0.00 73 1015.8
20260507174847 89 43 6.1 9.6 0.00 0.00 0.00 74 1015.8
20260507174344 88 63 5.2 7.0 0.00 0.00 0.00 75 1015.7
20260507173841 89 57 6.1 7.0 0.00 0.00 0.00 74 1015.8
20260507173338 88 62 5.2 7.8 0.00 0.00 0.00 74 1016.1
20260507172834 89 76 7.0 7.8 0.00 0.00 0.00 74 1016.0
20260507172331 88 73 2.6 5.2 0.00 0.00 0.00 76 1016.1
20260507171827 88 46 2.6 2.6 0.00 0.00 0.00 73 1016.3
20260507171324 89 110 4.3 5.2 0.00 0.00 0.00 70 1016.3
20260507170821 88 78 5.2 7.0 0.00 0.00 0.00 71 1016.4
20260507170317 89 109 7.0 7.8 0.00 0.00 0.00 70 1016.4
20260507165813 90 144 4.3 5.2 0.00 0.00 0.00 69 1016.5
20260507165310 90 63 6.1 7.0 0.00 0.00 0.00 70 1016.6
20260507164806 91 56 8.7 11.3 0.00 0.00 0.00 68 1016.8
20260507164303 90 98 6.1 7.0 0.00 0.00 0.00 69 1016.8
20260507163800 89 102 3.5 4.3 0.00 0.00 0.00 71 1016.9
20260507163258 90 72 4.3 7.0 0.00 0.00 0.00 71 1016.9
20260507162753 88 62 2.6 4.3 0.00 0.00 0.00 71 1017.0
20260507162249 88 165 3.5 5.2 0.00 0.00 0.00 72 1017.0
20260507161747 90 87 5.2 7.0 0.00 0.00 0.00 71 1017.1
20260507161243 90 68 5.2 6.1 0.00 0.00 0.00 71 1017.1
20260507160739 89 60 6.1 7.8 0.00 0.00 0.00 71 1017.0
20260507160236 89 69 4.3 6.1 0.00 0.00 0.00 71 1017.3
20260507155732 90 76 5.2 7.0 0.00 0.00 0.00 71 1017.2
20260507155228 91 155 2.6 4.3 0.00 0.00 0.00 69 1017.2
20260507154725 89 96 5.2 6.1 0.00 0.00 0.00 71 1017.3
20260507154222 88 120 2.6 4.3 0.00 0.00 0.00 72 1017.4
20260507153718 90 127 3.5 5.2 0.00 0.00 0.00 71 1017.5
20260507153215 89 69 1.7 1.7 0.00 0.00 0.00 70 1017.3
20260507152712 90 91 2.6 2.6 0.00 0.00 0.00 70 1017.5
20260507152207 90 168 1.7 1.7 0.00 0.00 0.00 69 1017.5
20260507151704 91 172 5.2 6.1 0.00 0.00 0.00 69 1017.6
20260507151201 91 124 1.7 1.7 0.00 0.00 0.00 68 1017.4
20260507150658 89 59 0.0 0.9 0.00 0.00 0.00 70 1017.7
20260507150154 90 143 1.7 2.6 0.00 0.00 0.00 70 1017.6
20260507145650 90 66 0.0 0.0 0.00 0.00 0.00 68 1017.7
20260507145147 87 86 2.6 2.6 0.00 0.00 0.00 73 1017.7
20260507144643 88 128 2.6 4.3 0.00 0.00 0.00 72 1017.9
20260507144142 89 142 2.6 4.3 0.00 0.00 0.00 70 1018.0
20260507143638 89 137 3.5 4.3 0.00 0.00 0.00 69 1017.8
20260507143135 89 166 1.7 2.6 0.00 0.00 0.00 71 1017.6
20260507142630 87 215 0.9 1.7 0.00 0.00 0.00 75 1017.9
20260507142128 87 65 0.9 0.9 0.00 0.00 0.00 76 1018.0
20260507141624 87 169 0.0 0.0 0.00 0.00 0.00 74 1018.2
20260507141121 87 29 0.9 1.7 0.00 0.00 0.00 74 1018.0
20260507140617 85 117 1.7 1.7 0.00 0.00 0.00 77 1018.2
20260507140115 86 79 1.7 1.7 0.00 0.00 0.00 76 1018.0
20260507135612 86 53 1.7 1.7 0.00 0.00 0.00 75 1018.1
20260507135109 87 36 3.5 4.3 0.00 0.00 0.00 73 1018.0
20260507134605 87 88 1.7 2.6 0.00 0.00 0.00 73 1018.3
20260507134102 85 48 1.7 1.7 0.00 0.00 0.00 77 1018.3
20260507133557 85 103 1.7 2.6 0.00 0.00 0.00 78 1018.3
20260507133055 85 55 2.6 2.6 0.00 0.00 0.00 79 1018.4
20260507132552 84 77 1.7 1.7 0.00 0.00 0.00 79 1018.1
20260507132048 85 71 1.7 2.6 0.00 0.00 0.00 78 1018.0
20260507131545 86 114 2.6 2.6 0.00 0.00 0.00 76 1018.0
20260507131043 86 59 2.6 2.6 0.00 0.00 0.00 76 1018.0
20260507130539 86 127 2.6 4.3 0.00 0.00 0.00 79 1018.1
20260507130038 85 171 4.3 5.2 0.00 0.00 0.00 79 1017.8
20260507125536 85 106 2.6 5.2 0.00 0.00 0.00 81 1017.8
20260507125033 85 79 3.5 5.2 0.00 0.00 0.00 80 1017.8
20260507124529 85 123 1.7 2.6 0.00 0.00 0.00 80 1017.8
20260507124027 85 185 1.7 2.6 0.00 0.00 0.00 79 1017.9
20260507123525 84 145 4.3 6.1 0.00 0.00 0.00 81 1017.9
20260507123022 84 88 1.7 2.6 0.00 0.00 0.00 81 1017.9
20260507122517 83 86 3.5 4.3 0.00 0.00 0.00 82 1017.9
20260507122013 83 86 3.5 5.2 0.00 0.00 0.00 83 1017.6
20260507121509 83 112 2.6 4.3 0.00 0.00 0.00 84 1017.5
20260507121004 83 103 2.6 4.3 0.00 0.00 0.00 85 1017.7
20260507120501 83 64 2.6 2.6 0.00 0.00 0.00 85 1017.4
20260507115958 82 70 5.2 6.1 0.00 0.00 0.00 86 1017.5
20260507115454 82 92 4.3 5.2 0.00 0.00 0.00 86 1017.4
20260507114950 82 153 4.3 6.1 0.00 0.00 0.00 86 1017.4
20260507114446 82 81 2.6 2.6 0.00 0.00 0.00 86 1017.2
20260507113944 82 143 1.7 2.6 0.00 0.00 0.00 86 1017.3
20260507113440 82 96 1.7 1.7 0.00 0.00 0.00 86 1017.3
20260507112938 82 118 1.7 1.7 0.00 0.00 0.00 86 1017.2
20260507112435 81 210 0.0 0.0 0.00 0.00 0.00 87 1017.1
20260507111932 82 111 0.9 0.9 0.00 0.00 0.00 86 1017.0
20260507111430 82 88 0.9 0.9 0.00 0.00 0.00 86 1017.1
20260507110926 81 198 0.0 0.9 0.00 0.00 0.00 87 1017.1
20260507110422 81 151 0.9 0.9 0.00 0.00 0.00 88 1017.0
20260507105919 81 98 0.0 0.9 0.00 0.00 0.00 87 1017.3
20260507105416 81 75 0.0 0.0 0.00 0.00 0.00 87 1017.3
20260507104912 80 98 0.0 0.0 0.00 0.00 0.00 89 1017.2
20260507104409 80 74 0.0 0.0 0.00 0.00 0.00 90 1017.0
20260507103905 79 67 0.9 0.9 0.00 0.00 0.00 90 1017.1
20260507103402 79 71 0.9 0.9 0.00 0.00 0.00 91 1017.0
20260507102858 78 124 0.9 0.9 0.00 0.00 0.00 92 1016.8
20260507102354 78 80 0.0 0.0 0.00 0.00 0.00 93 1017.0
20260507101851 77 121 0.9 0.9 0.00 0.00 0.00 93 1017.0
20260507101351 77 132 0.9 1.7 0.00 0.00 0.00 94 1016.9
20260507100848 77 174 0.9 0.9 0.00 0.00 0.00 94 1016.6
20260507100346 77 116 0.9 0.9 0.00 0.00 0.00 95 1016.8
20260507095844 77 116 1.7 1.7 0.00 0.00 0.00 95 1016.4
20260507095340 77 141 0.0 0.9 0.00 0.00 0.00 95 1016.6
20260507094838 77 190 0.9 0.9 0.00 0.00 0.00 95 1016.6
20260507094334 77 159 1.7 2.6 0.00 0.00 0.00 95 1016.6
20260507093831 77 178 1.7 2.6 0.00 0.00 0.00 94 1016.6
20260507093329 77 160 2.6 2.6 0.00 0.00 0.00 94 1016.6
20260507092827 77 170 1.7 1.7 0.00 0.00 0.00 94 1016.6
20260507092323 77 162 1.7 1.7 0.00 0.00 0.00 94 1016.6
20260507091820 77 185 0.0 0.9 0.00 0.00 0.00 94 1016.4
20260507091316 77 132 0.0 0.9 0.00 0.00 0.00 94 1016.7
20260507090811 77 136 0.9 1.7 0.00 0.00 0.00 93 1016.7
20260507090308 77 63 0.0 0.9 0.00 0.00 0.00 93 1016.9
20260507085805 78 130 0.0 0.9 0.00 0.00 0.00 93 1016.9
20260507085306 78 100 1.7 1.7 0.00 0.00 0.00 92 1016.8
20260507084800 78 49 0.9 0.9 0.00 0.00 0.00 92 1016.9
20260507084255 78 66 0.0 0.9 0.00 0.00 0.00 92 1016.8
20260507083753 78 103 0.9 0.9 0.00 0.00 0.00 93 1016.8
20260507083250 78 204 0.0 0.9 0.00 0.00 0.00 93 1016.8
20260507082746 78 220 0.9 1.7 0.00 0.00 0.00 93 1016.8
20260507082242 78 225 0.9 1.7 0.00 0.00 0.00 93 1016.6
20260507081739 78 221 0.9 0.9 0.00 0.00 0.00 93 1016.5
20260507081235 78 192 0.9 0.9 0.00 0.00 0.00 93 1016.6
20260507080731 77 208 0.0 0.0 0.00 0.00 0.00 93 1016.6
20260507080228 77 199 0.0 0.9 0.00 0.00 0.00 94 1016.6
20260507075723 77 188 0.0 0.0 0.00 0.00 0.00 94 1016.7
20260507075220 77 97 0.0 0.9 0.00 0.00 0.00 94 1016.4
20260507074716 77 179 0.9 0.9 0.00 0.00 0.00 94 1016.6
20260507074215 77 109 0.0 0.0 0.00 0.00 0.00 94 1016.8
20260507073711 77 176 0.0 0.0 0.00 0.00 0.00 94 1016.6
20260507073207 78 181 0.0 0.9 0.00 0.00 0.00 94 1016.7
20260507072705 78 174 0.9 0.9 0.00 0.00 0.00 93 1016.8
20260507072202 78 169 0.0 0.9 0.00 0.00 0.00 93 1016.8
20260507071700 78 188 0.9 0.9 0.00 0.00 0.00 93 1016.9
20260507071155 78 176 0.9 0.9 0.00 0.00 0.00 93 1017.0
20260507070653 78 155 0.0 0.0 0.00 0.00 0.00 93 1016.9
20260507070149 78 181 0.9 0.9 0.00 0.00 0.00 93 1016.7
20260507065646 78 188 0.9 1.7 0.00 0.00 0.00 93 1016.8
20260507065143 78 179 0.0 0.0 0.00 0.00 0.00 93 1017.0
20260507064640 78 80 0.0 0.9 0.00 0.00 0.00 93 1016.9
20260507064139 78 186 0.0 0.0 0.00 0.00 0.00 93 1017.1
20260507063636 78 72 0.0 0.0 0.00 0.00 0.00 92 1017.2
20260507063133 78 150 0.9 1.7 0.00 0.00 0.00 92 1017.3
20260507062630 78 107 0.9 1.7 0.00 0.00 0.00 92 1017.2
20260507062128 78 118 1.7 1.7 0.00 0.00 0.00 92 1017.3
20260507061625 78 165 0.9 1.7 0.00 0.00 0.00 91 1017.1
20260507061123 79 100 0.9 1.7 0.00 0.00 0.00 91 1017.2
20260507060621 79 86 0.9 0.9 0.00 0.00 0.00 91 1017.3
20260507060117 79 76 0.0 0.9 0.00 0.00 0.00 91 1017.3
20260507055612 79 108 0.9 1.7 0.00 0.00 0.00 91 1017.6
20260507055109 79 93 0.0 0.9 0.00 0.00 0.00 91 1017.5
20260507054604 79 109 0.9 0.9 0.00 0.00 0.00 91 1017.6
20260507054102 79 220 0.9 0.9 0.00 0.00 0.00 91 1017.6
20260507053600 79 232 1.7 1.7 0.00 0.00 0.00 91 1017.6
20260507053058 78 228 0.9 1.7 0.00 0.00 0.00 92 1017.7
20260507052556 78 147 1.7 1.7 0.00 0.00 0.00 92 1017.7
20260507052052 78 176 2.6 2.6 0.00 0.00 0.00 92 1017.8
20260507051549 78 200 0.9 1.7 0.00 0.00 0.00 92 1018.0
20260507051046 78 183 1.7 1.7 0.00 0.00 0.00 92 1018.1
20260507050543 78 165 1.7 1.7 0.00 0.00 0.00 91 1018.2
20260507050039 78 163 2.6 2.6 0.00 0.00 0.00 91 1018.0
20260507045536 79 205 0.9 0.9 0.00 0.00 0.00 91 1018.2
20260507045033 79 219 0.9 0.9 0.00 0.00 0.00 91 1018.5
20260507044530 79 199 1.7 1.7 0.00 0.00 0.00 91 1018.6
20260507044027 79 170 0.9 0.9 0.00 0.00 0.00 91 1018.6
20260507043523 79 179 1.7 1.7 0.00 0.00 0.00 91 1018.6
20260507043021 79 172 1.7 2.6 0.00 0.00 0.00 90 1018.5
20260507042516 79 156 2.6 2.6 0.00 0.00 0.00 90 1018.7
20260507042012 79 187 1.7 1.7 0.00 0.00 0.00 90 1018.9
20260507041509 79 185 0.9 0.9 0.00 0.00 0.00 90 1018.8
20260507041006 79 152 0.9 0.9 0.00 0.00 0.00 90 1018.8
20260507040502 79 159 0.9 1.7 0.00 0.00 0.00 90 1018.9
20260507035957 79 199 0.9 0.9 0.00 0.00 0.00 90 1018.9
20260507035454 79 189 0.0 0.9 0.00 0.00 0.00 90 1018.9
20260507034951 79 210 0.9 0.9 0.00 0.00 0.00 90 1019.1
20260507034448 79 196 0.9 1.7 0.00 0.00 0.00 90 1018.8
20260507033946 80 181 1.7 1.7 0.00 0.00 0.00 90 1018.9
20260507033443 80 128 3.5 4.3 0.00 0.00 0.00 90 1019.0
20260507032940 80 109 0.9 0.9 0.00 0.00 0.00 89 1019.0
20260507032437 80 93 0.0 0.9 0.00 0.00 0.00 89 1018.9
20260507031933 80 110 2.6 2.6 0.00 0.00 0.00 89 1019.1
20260507031430 80 123 1.7 1.7 0.00 0.00 0.00 89 1019.2
20260507030927 80 119 0.9 1.7 0.00 0.00 0.00 88 1019.1
20260507030424 80 88 0.9 0.9 0.00 0.00 0.00 88 1019.0
20260507025921 80 125 1.7 1.7 0.00 0.00 0.00 88 1019.0
20260507025418 80 124 0.9 1.7 0.00 0.00 0.00 88 1019.3
20260507024916 80 144 2.6 2.6 0.00 0.00 0.00 88 1019.2
20260507024413 80 169 1.7 2.6 0.00 0.00 0.00 87 1019.1